ARIANE 5 DEB (SYLDA), 40735

Orbit data source: Space-Track

ARIANE 5 DEB (SYLDA), 40735 is space debris originally from a launch on Wed, 15 Jul 2015 UTC launched from the French Guiana (FRGUI). Debris objects in space refer to the collection of defunct objects orbiting the Earth. Examples of debris include non-operational satellites, rocket bodies, and fragments generated from explosions, collisions, or faulty payload assembly.

Loading next visibility...
Identifier
40735, 2015-034D
Orbit
Active
Country
Flag of FRFR
Related business
Manufacturer
ADS/Bremen
Mission
Spacecraft
Bus & Motor
SYLDA 5, Unknown motor
Mass
440 kg wet, 440 kg dry
Launch date (UTC)
2015-07-15 (10 years ago)
Launch vehicle
Unknown
Launch site
French Guiana (FRGUI)
Object type
Payload
Rocket body
Debris
Shape & HBR
Cyl, 2.8 m
Radar Cross Section
27.391 m², Large (>1 m²)

Expand to show TLE details & history
Last TLE update: 22 hours ago

TLE from 22 hours ago
0 ARIANE 5 DEB (SYLDA)
1 40735U 15034D   25338.46861023  .01648180 -11014-5  65733-2 0  9990
2 40735   3.9189   9.3628 4266552 313.6842  17.9965  7.12080988114136
Epoch: 2025-12-04T11:14Z
TLE epoch observation values (Epoch: 2025-12-04T11:14:47.923Z)
Latitude
Longitude
127.13852°
Altitude
830.84 km
Speed
8.698 km/s
True Right ascension
00h 37m 27s
True Declination
0° 00' 00"
Sunlit
Object was in daylight at epoch
Visualization orbit readout
Latitude
Unknown
Longitude
Unknown
Altitude
Unknown
Speed
Unknown
Apparent Right ascension
Unknown
Apparent Declination
Unknown
Sunlit
N/A
Visualization observer readout
Local Sidereal Time
06:42:29
Azimuth
Unknown
Elevation
Unknown
Doppler factor
Unknown
Orbital elements
Apogee altitude
9,911.023 km
Perigee altitude
168.157 km
Semi-major axis
11,417.727 km
Eccentricity
0.42666
Inclination
3.9189°
RAAN
9.3628°
Arg. of periapsis
313.6842°
True anomaly
46.32272°
Mean anomaly
17.9965°
Eccentric anomaly
30.34741°
Mean motion
1.77899 °/min
Orbital period
202.36 mins
BSTAR
0.0065733
Loading maneuver chart data...
Computing Atmospheric mass density...
Loading historical data...
Loading historical data...
Loading historical data...
Loading historical data...
Loading historical data...
Loading historical data...
Loading historical data...

Documentation

Showing up to 5 results
|